Regional Weather Roundup
Issued by NWS State College, PA

Home | Current Version | Previous Version | Graphics & Text | Print | Product List | Glossary Off
Versions: 1 2 3 4 5 6 7 8 9 10 11 12 13 14 15 16 17 18 19 20 21 22 23 24 25 26 27 28 29 30 31 32 33 34 35 36 37 38 39 40 41 42 43 44 45 46 47 48 49 50

000
ASUS41 KCTP 101503
RWRCTP

REGIONAL WEATHER ROUNDUP
NATIONAL WEATHER SERVICE STATE COLLEGE PA
1100 AM EDT THU JUL 10 2014

Note: "fair" indicates few or no clouds below 12,000 feet with no
significant weather and/or obstructions to visibility.

* = STATION THAT DOES NOT REPORT PRECIPITATION /E.G. RAIN...SNOW...ETC/
    THUNDER OR FOG.

PAZ002>004-007>009-013>016-020>023-029>032-101600-
WESTERN PENNSYLVANIA

CITY           SKY/WX    TMP DP  RH WIND       PRES   REMARKS
ERIE           SUNNY     72  54  53 NE13      30.16R
MEADVILLE      SUNNY     70  51  51 E6        30.16S
FRANKLIN*      MOSUNNY   70  55  60 N5        30.18S
NEW CASTLE     NOT AVBL
BEAVER COUNTY  SUNNY     73  57  56 SE5       30.14
BUTLER*        MOSUNNY   72  61  68 NE5       30.16R
PITTSBURGH INT PTSUNNY   73  60  63 E5        30.13R
PITTSBURGH     MOSUNNY   76  59  55 CALM      30.12R
INDIANA*       MOSUNNY   73  61  64 NE5       30.17S
LATROBE        PTSUNNY   73  64  73 CALM      30.13S
WASHINGTON CO* MOSUNNY   73  61  64 E3        30.13S
$$

PAZ004>006-010>012-017>019-024>028-033>037-041-042-045-046-049>053-101600-
CENTRAL PENNSYLVANIA

CITY           SKY/WX    TMP DP  RH WIND       PRES   REMARKS
BRADFORD       MOSUNNY   67  52  58 VRB3      30.19R
DUBOIS         MOSUNNY   71  59  65 E6        30.16S
CLEARFIELD     MOSUNNY   71  60  68 NE7       30.16S
JOHNSTOWN      MOSUNNY   71  59  65 VRB3      30.16R
ALTOONA        MOSUNNY   74  63  68 N3        30.15R
STATE COLLEGE  MOSUNNY   72  63  73 NE6       30.15S
WILLIAMSPORT   MOSUNNY   74  60  61 CALM      30.12S
SELINSGROVE    SUNNY     76  62  62 VRB3      30.13S
FT INDIANTOWN  SUNNY     78  61  54 E6        30.12R
CAPITAL CITY   SUNNY     78  60  53 E10       30.11R
HARRISBURG     SUNNY     81  61  50 NE7       30.10R
YORK           SUNNY     79  60  52 E7        30.10S
$$

PAZ038>040-043-044-047-048-054-055-060>062-067>071-101600-
EASTERN PENNSYLVANIA

CITY           SKY/WX    TMP DP  RH WIND       PRES   REMARKS
SCRANTON       SUNNY     73  56  54 NE6       30.15R
MOUNT POCONO   MOSUNNY   68  59  73 VRB5      30.18R
ALLENTOWN      PTSUNNY   74  64  71 NE9       30.13R
QUAKERTOWN*    PTSUNNY   75  63  64 E6        30.13R
READING        PTSUNNY   77  63  61 NE8       30.11R
LANCASTER      MOSUNNY   77  62  59 E8        30.11R
COATESVILLE    PTSUNNY   75  64  69 NE3       30.12R
POTTSTOWN      PTSUNNY   77  63  61 VRB6      30.13R
BLUE BELL      CLOUDY    77  64  65 E6        30.11R
DOYLESTOWN     CLOUDY    75  64  68 CALM      30.12R
WILLOW GROVE   NOT AVBL
NORTH PHILA    CLOUDY    78  62  57 NE9       30.12R
PHILADELPHIA   CLOUDY    79  60  52 E10       30.10R
$$


USA.gov is the U.S. government's official web portal to all federal, state and local government web resources and services.